College Station, TX

8:29 AM CDT on April 27, 2017 (GMT -0500)
Easterwood

Weather History for KCLL - February, 2014

Change the Weather History Date:

Wednesday, February 26, 2014

  Actual Average Record
Temperature  
Mean Temperature 42 °F 57 °F  
Max Temperature 51 °F 67 °F 88 °F (1917)
Min Temperature 33 °F 47 °F 24 °F (1960)
Degree Days  
Heating Degree Days 23 9  
Month to date heating degree days 343 291  
Since 1 July heating degree days 1692 1369  
Cooling Degree Days 0 1  
Month to date cooling degree days 21 23  
Year to date cooling degree days 21 34  
Moisture  
Dew Point 37 °F    
Average Humidity 68    
Maximum Humidity 82    
Minimum Humidity 54    
Precipitation  
Precipitation 0.32 in 0.09 in 1.99 in (1966)
Month to date precipitation 0.89 2.65  
Year to date precipitation 2.18 5.89  
Sea Level Pressure  
Sea Level Pressure 30.12 in    
Wind  
Wind Speed 14 mph (North)    
Max Wind Speed 25 mph    
Max Gust Speed 33 mph    
Visibility 7 miles    
Events Rain , Thunderstorm    
T = Trace of Precipitation, MM = Missing Value Source: NWS Daily Summary

Daily Weather History Graph

Daily Weather History Graph

Search for Another Location

Airport or City:

Trip Planner

Search our weather history database for the weather conditions in past years. The results will help you decide how hot, cold, wet, or windy it might be!

Date:

Astronomy

Feb. 26, 2014 Rise Set
Actual Time 6:54 AM CST 6:22 PM CST
Civil Twilight 6:30 AM CST 6:46 PM CST
Nautical Twilight 6:02 AM CST 7:14 PM CST
Astronomical Twilight 5:34 AM CST 7:42 PM CST
Moon 4:33 AM CST (2/26) 3:45 PM CST (2/26)
Length of Visible Light 12h 15m
Length of Day
11h 27m
Waning Crescent, 10% of the Moon is Illuminated
Feb 26
Waning Crescent
Mar 1
New
Mar 8
First Quarter
Mar 16
Full
Mar 23
Last Quarter

Hourly Weather History & Observations

Time (CST) Temp. Windchill Dew Point Humidity Pressure Visibility Wind Dir Wind Speed Gust Speed Precip Events Conditions
12:10 AM 51.8 °F - 50.0 °F 94% 30.02 in 2.5 mi North 13.8 mph - 0.00 in   Overcast
12:22 AM 51.8 °F - 50.0 °F 94% 30.02 in 3.0 mi North 13.8 mph 20.7 mph 0.00 in Rain Light Rain
12:53 AM 51.1 °F - 48.9 °F 92% 30.02 in 3.0 mi North 13.8 mph - 0.01 in   Overcast
1:02 AM 50.0 °F - 48.2 °F 94% 30.03 in 2.5 mi North 11.5 mph 20.7 mph N/A   Overcast
1:16 AM 50.0 °F - 48.2 °F 94% 30.03 in 3.0 mi North 13.8 mph - 0.00 in Rain Light Rain
1:53 AM 48.9 °F - 46.9 °F 93% 30.03 in 3.0 mi North 17.3 mph 24.2 mph 0.01 in Rain Rain
2:20 AM 48.2 °F - 46.4 °F 93% 30.03 in 6.0 mi North 17.3 mph 27.6 mph 0.01 in Rain , Thunderstorm Light Thunderstorms and Rain
2:32 AM 46.4 °F 39.5 °F 44.6 °F 93% 30.04 in 6.0 mi North 17.3 mph - 0.02 in Rain , Thunderstorm Thunderstorms and Rain
2:36 AM 46.4 °F 39.8 °F 44.6 °F 93% 30.05 in 5.0 mi North 16.1 mph 24.2 mph 0.04 in Rain , Thunderstorm Heavy Thunderstorms and Rain
2:53 AM 46.0 °F 38.0 °F 45.0 °F 96% 30.05 in 3.0 mi North 21.9 mph 26.5 mph 0.14 in Rain , Thunderstorm Heavy Thunderstorms and Rain
3:00 AM 46.4 °F 41.1 °F 44.6 °F 93% 30.09 in 5.0 mi NNW 11.5 mph 26.5 mph 0.01 in Rain , Thunderstorm Light Thunderstorms and Rain
3:22 AM 46.4 °F 39.2 °F 44.6 °F 93% 30.06 in 4.0 mi North 18.4 mph 26.5 mph 0.13 in Rain Rain
3:53 AM 44.1 °F 35.9 °F 39.9 °F 85% 30.08 in 10.0 mi North 19.6 mph 26.5 mph 0.15 in   Overcast
4:17 AM 42.8 °F 34.3 °F 39.2 °F 87% 30.08 in 5.0 mi North 19.6 mph - N/A   Overcast
4:53 AM 43.0 °F 34.8 °F 41.0 °F 93% 30.09 in 8.0 mi North 18.4 mph 25.3 mph 0.00 in Rain Light Rain
5:25 AM 42.8 °F 34.8 °F 39.2 °F 87% 30.10 in 9.0 mi North 17.3 mph 25.3 mph 0.00 in   Overcast
5:53 AM 43.0 °F 34.5 °F 39.0 °F 86% 30.12 in 9.0 mi North 19.6 mph 27.6 mph 0.00 in   Overcast
6:53 AM 42.1 °F 32.6 °F 36.0 °F 79% 30.15 in 10.0 mi North 23.0 mph 27.6 mph N/A   Overcast
7:53 AM 41.0 °F 32.8 °F 36.0 °F 82% 30.19 in 8.0 mi North 16.1 mph 31.1 mph N/A   Overcast
8:53 AM 39.9 °F 31.4 °F 33.1 °F 77% 30.21 in 9.0 mi North 16.1 mph 29.9 mph N/A   Overcast
9:25 AM 39.2 °F 29.3 °F 32.0 °F 75% 30.23 in 9.0 mi North 20.7 mph 25.3 mph N/A   Overcast
9:53 AM 39.0 °F 29.6 °F 30.9 °F 73% 30.23 in 9.0 mi North 18.4 mph 24.2 mph N/A   Overcast
10:53 AM 39.9 °F 31.4 °F 30.9 °F 70% 30.23 in 9.0 mi North 16.1 mph 24.2 mph 0.00 in Rain Light Rain
11:53 AM 41.0 °F 33.1 °F 30.9 °F 67% 30.22 in 8.0 mi North 15.0 mph 26.5 mph 0.00 in Rain Light Rain
12:53 PM 37.9 °F 27.9 °F 32.0 °F 79% 30.18 in 6.0 mi North 19.6 mph 26.5 mph 0.00 in Rain Light Rain
1:53 PM 37.0 °F 27.7 °F 28.9 °F 73% 30.17 in 8.0 mi North 16.1 mph - 0.00 in Rain Light Rain
2:53 PM 37.0 °F 28.1 °F 30.0 °F 76% 30.17 in 8.0 mi NNW 15.0 mph 20.7 mph 0.01 in Rain Light Rain
3:53 PM 37.9 °F 30.0 °F 30.0 °F 73% 30.15 in 10.0 mi North 12.7 mph - 0.00 in   Scattered Clouds
4:53 PM 39.0 °F 32.3 °F 28.0 °F 65% 30.14 in 10.0 mi NNW 10.4 mph - N/A   Scattered Clouds
5:53 PM 39.9 °F 34.5 °F 28.0 °F 63% 30.15 in 10.0 mi North 8.1 mph - N/A   Clear
6:53 PM 39.9 °F 32.5 °F 26.1 °F 58% 30.17 in 10.0 mi North 12.7 mph - N/A   Clear
7:53 PM 39.0 °F 34.8 °F 25.0 °F 57% 30.18 in 10.0 mi North 5.8 mph - N/A   Clear
8:53 PM 37.0 °F 34.5 °F 26.1 °F 65% 30.19 in 10.0 mi NNW 3.5 mph - N/A   Clear
9:53 PM 37.0 °F 34.5 °F 26.1 °F 65% 30.19 in 10.0 mi NW 3.5 mph - N/A   Clear
10:53 PM 35.1 °F 32.2 °F 25.0 °F 67% 30.19 in 10.0 mi NW 3.5 mph - N/A   Clear
11:53 PM 33.1 °F - 27.0 °F 78% 30.19 in 10.0 mi Calm Calm - N/A   Clear